Lincoln, NE

3:30 PM CST on December 10, 2019 (GMT -0600)
Lincoln Municipal

Weather History for KLNK - November, 2019

Change the Weather History Date:

Saturday, November 16, 2019

  Actual Average Record
Temperature  
Mean Temperature 50 °F 39 °F  
Max Temperature 62 °F 50 °F 80 °F (2016)
Min Temperature 37 °F 27 °F 4 °F (1955)
Degree Days  
Heating Degree Days 15 26  
Month to date heating degree days 465 357  
Since 1 July heating degree days 976 836  
Cooling Degree Days 0 0  
Month to date cooling degree days 0 0  
Year to date cooling degree days 1332 1173  
Moisture  
Dew Point 30 °F    
Average Humidity 50    
Maximum Humidity 70    
Minimum Humidity 30    
Precipitation  
Precipitation 0.00 in 0.04 in 2.06 in (1996)
Month to date precipitation 0.02 0.83  
Year to date precipitation 32.77 27.40  
Snow  
Snow 0.00 in 0.10 in 2.50 in (1961)
Month to date snowfall 0.5 0.8  
Since 1 July snowfall 1.2 1.5  
Since 1 September snowfall 1.2 1.5  
Snow Depth 0.00 in    
Sea Level Pressure  
Sea Level Pressure 30.05 in    
Wind  
Wind Speed 12 mph (SSE)    
Max Wind Speed 24 mph    
Max Gust Speed 32 mph    
Visibility 10 miles    
Events      
T = Trace of Precipitation, MM = Missing Value Source: NWS Daily Summary

Daily Weather History Graph

Daily Weather History Graph

Search for Another Location

Airport or City:

Astronomy

Nov. 16, 2019 Rise Set
Actual Time 7:15 AM CST 5:08 PM CST
Civil Twilight 6:45 AM CST 5:37 PM CST
Nautical Twilight 6:12 AM CST 6:10 PM CST
Astronomical Twilight 5:39 AM CST 6:43 PM CST
Moon 8:41 PM CST (11/16) 11:10 AM CST (11/16)
Length of Visible Light 10h 51m
Length of Day
9h 52m
Waning Gibbous, 82% of the Moon is Illuminated
Nov 16
Waning Gibbous
Nov 19
Last Quarter
Nov 26
New
Dec 4
First Quarter
Dec 11
Full

Hourly Weather History & Observations

Time (CST) Temp. Windchill Dew Point Humidity Pressure Visibility Wind Dir Wind Speed Gust Speed Precip Events Conditions
12:54 AM 39.0 °F 33.4 °F 28.9 °F 67% 30.19 in 10.0 mi SSE 8.1 mph - N/A   Clear
1:54 AM 39.9 °F 32.9 °F 28.9 °F 65% 30.16 in 10.0 mi SSE 11.5 mph - N/A   Clear
2:54 AM 37.9 °F 31.5 °F 28.0 °F 68% 30.16 in 10.0 mi SSE 9.2 mph - N/A   Clear
3:54 AM 37.0 °F 30.4 °F 28.0 °F 70% 30.15 in 10.0 mi SSE 9.2 mph - N/A   Clear
4:54 AM 37.0 °F 30.4 °F 28.0 °F 70% 30.15 in 10.0 mi SSE 9.2 mph - N/A   Clear
5:54 AM 37.9 °F 29.6 °F 28.0 °F 68% 30.14 in 10.0 mi SSE 13.8 mph - N/A   Clear
6:54 AM 37.9 °F 29.6 °F 28.0 °F 68% 30.13 in 10.0 mi SSE 13.8 mph - N/A   Clear
7:54 AM 39.0 °F 31.0 °F 28.0 °F 65% 30.12 in 10.0 mi South 13.8 mph - N/A   Clear
8:54 AM 44.1 °F 37.4 °F 28.9 °F 55% 30.11 in 10.0 mi South 13.8 mph - N/A   Clear
9:54 AM 48.9 °F - 28.9 °F 46% 30.09 in 10.0 mi South 19.6 mph 26.5 mph N/A   Clear
10:54 AM 53.1 °F - 30.0 °F 41% 30.05 in 10.0 mi South 19.6 mph - N/A   Clear
11:54 AM 57.0 °F - 30.9 °F 37% 30.02 in 10.0 mi South 19.6 mph 27.6 mph N/A   Clear
12:54 PM 59.0 °F - 30.9 °F 35% 29.98 in 10.0 mi South 23.0 mph 32.2 mph N/A   Clear
1:54 PM 60.1 °F - 30.9 °F 33% 29.96 in 10.0 mi South 17.3 mph 27.6 mph N/A   Clear
2:54 PM 60.1 °F - 30.9 °F 33% 29.94 in 10.0 mi SSE 18.4 mph - N/A   Clear
3:54 PM 62.1 °F - 30.9 °F 31% 29.92 in 10.0 mi South 16.1 mph - N/A   Clear
4:54 PM 57.9 °F - 30.9 °F 36% 29.93 in 10.0 mi South 11.5 mph - N/A   Clear
5:54 PM 54.0 °F - 30.9 °F 41% 29.96 in 10.0 mi South 10.4 mph - N/A   Clear
6:54 PM 52.0 °F - 30.9 °F 45% 29.99 in 10.0 mi South 9.2 mph - N/A   Clear
7:54 PM 48.9 °F - 30.9 °F 50% 30.00 in 10.0 mi South 8.1 mph - N/A   Clear
8:54 PM 48.9 °F - 30.9 °F 50% 30.00 in 10.0 mi South 5.8 mph - N/A   Clear
9:54 PM 46.9 °F - 30.9 °F 54% 30.00 in 10.0 mi South 5.8 mph - N/A   Clear
10:54 PM 46.9 °F - 30.9 °F 54% 29.99 in 10.0 mi Calm Calm - N/A   Mostly Cloudy